Home > Weather > Rio Branco > Past weeks

Flag for Brazil Past Weather in Rio Branco, Acre, Brazil — Yesterday and Last 2 Weeks

Now
82 °F

Clear.


Feels Like: 84 °F
Forecast: 64 / 95 °F
Wind: 2 mph from Northwest

Location: Rio Branco Airport

Current Time: Jul 23, 2016 at 8:13:17 PM

Latest Report: Jul 23, 2016 at 7:00 PM


Visibility: 10 mi

Pressure: 29.86 "Hg

Humidity: 55%

Dew Point: 64 °F

Location of Rio BrancoLocation

Past Weather in Rio Branco — Graph

°F

Rio Branco Temperature Yesterday

Maximum temperature yesterday: 91 °F (at 1:00 PM)
Minimum temperature yesterday: 61 °F (at 6:00 AM)
Average temperature yesterday: 76 °F

High & Low Weather Summary for the Past Weeks

 TemperatureHumidityPressure
High93 °F (Jul 15, 3:00 PM)100% (Jul 9, 2:00 AM)30.09 "Hg (Jul 9, 2:00 AM)
Low61 °F (Jul 18, 6:00 AM)34% (Jul 23, 12:00 PM)29.80 "Hg (Jul 15, 3:00 PM)
Average77 °F71%29.95 "Hg
* Reported Jul 8 7:00 PM — Jul 23 7:00 PM, Rio Branco, Weather by CustomWeather, © 2016

Note: Actual official high and low records may vary slightly from our data, if they occured in-between our weather recording intervals... More about our weather records

Advertising

Rio Branco Weather History for the Previous 24 Hours

Scroll right to see more
 ConditionsComfort  
Time TempWeatherWind HumidityBarometerVisibility
7:00 PM
Sat, Jul 23
82 °FClear.2 mph55%29.86 "Hg10 mi
6:00 PM82 °FClear.2 mph58%29.83 "Hg10 mi
5:00 PM88 °FPassing clouds.2 mph40%29.83 "HgN/A
4:00 PM90 °FScattered clouds.2 mph41%29.86 "HgN/A
3:00 PM90 °FScattered clouds.3 mph36%29.86 "HgN/A
2:00 PM93 °FPassing clouds.3 mph34%29.86 "HgN/A
1:00 PM90 °FPassing clouds.2 mph38%29.89 "HgN/A
12:00 PM93 °FPassing clouds.5 mph34%29.92 "HgN/A
11:00 AM90 °FPassing clouds.3 mph41%29.98 "HgN/A
10:00 AM88 °FSunny.3 mph43%29.98 "Hg10 mi
9:00 AM86 °FSunny.3 mph52%29.98 "Hg10 mi
8:00 AM79 °FClear.2 mph65%29.98 "Hg6 mi
7:00 AM68 °FSunny.No wind94%29.95 "Hg10 mi
6:00 AM64 °FSunny.No wind94%29.95 "Hg10 mi
5:00 AM64 °FClear.No wind94%29.92 "Hg10 mi
4:00 AM64 °FClear.No wind94%29.92 "Hg10 mi
3:00 AM64 °FClear.No wind94%29.92 "Hg10 mi
2:00 AM68 °FClear.1 mph83%29.92 "Hg10 mi
1:00 AM66 °FClear.3 mph88%29.92 "Hg10 mi
12:00 AM68 °FClear.No wind83%29.95 "Hg10 mi
11:00 PM
Fri, Jul 22
70 °FClear.No wind83%29.95 "Hg10 mi
10:00 PM70 °FClear.No wind83%29.95 "Hg10 mi
9:00 PM72 °FClear.2 mph78%29.95 "Hg10 mi
8:00 PM73 °FClear.No wind74%29.92 "Hg10 mi
Weather by CustomWeather, © 2016

See weather overviewHow to use our weather pages